Гран При Бразилии: первая тренировка

Гран При Бразилии: первая тренировка

Дождь на трассе в Интерлагосе заставил команды отработать первую тренировку от начала и до конца. Трасса то подсыхала, то опять из-за осадков становилась мокрой, что очень усложнило работу командам, тем более, что Пирелли привезли прототипы резины для 2014 года.

Команды работали и дождевых шинах, и на промежуточных и на сликах, но лучшее время показал еще на 18-ой минуте Нико Росберг, установив результат 1:24.781 еще до ухудшения погоды.

Дождь не позволил гонщикам ни поработать с настройками, ни молодым пилотам протестировать болиды. Поэтому отчасти «пострадали» пятничные пилоты команд Торо Россо Даниил Квят, который заменял Даниэля Риккардо, Джеймс Каладо, который заменял Пола ди Ресту, и Родольфо Гонсалес, заменивший Макса Чилтона.

Все пилоты много ошибались и часто выезжали за пределы трассы, но серьезных инцидентов не произошло.

Под конец сессии, трасса начала подсыхать, но время Нико Росберга так никто и не улучшил.

Гран При Бразилии / Сан-Паулу
Дата22 Ноября 2013Погодапеременный дождь
Киевское время14:00-15:30 ч.Температура20°C
Местное время10:00-11:30 ч.Влажность77-81%
Участники22Давление923 mBar
Рекорд в гонке1:11.473 мин.Асфальт21-23°C
Рекорд в квалификации1:10.646 мин.Ветер1,5 м/с, юго-восточный

Результаты 

Поз.ПилотКомандаВремяОтставаниеот пред.Круги
19N. RosbergMercedes1:24.781  14
210L. HamiltonMercedes1:25.230+0:00.449+0:00.44913
31S. VettelRed Bull1:25.387+0:00.606+0:00.15717
45J. ButtonMcLaren1:25.391+0:00.610+0:00.00425
53F. AlonsoFerrari1:25.593+0:00.812+0:00.20213
62M. WebberRed Bull1:25.797+0:01.016+0:00.20417
76S. PerezMcLaren1:25.946+0:01.165+0:00.14915
819D. KwjatToro Rosso1:26.064+0:01.283+0:00.11817
97H. KovalainenLotus1:26.133+0:01.352+0:00.06931
1011N. HülkenbergSauber1:26.232+0:01.451+0:00.09917
114F. MassaFerrari1:26.248+0:01.467+0:00.01615
1212E. GutierrezSauber1:26.326+0:01.545+0:00.07828
138R. GrosjeanLotus1:26.570+0:01.789+0:00.24428
1418J. VergneToro Rosso1:26.593+0:01.812+0:00.02322
1515A. SutilForce India1:27.115+0:02.334+0:00.52225
1617V. BottasWilliams1:27.269+0:02.488+0:00.15423
1716P. MaldonadoWilliams1:27.358+0:02.577+0:00.08923
1814J. CaladoForce India1:27.436+0:02.655+0:00.0789
1921G. van der GardeCaterham1:28.107+0:03.326+0:00.67118
2020C. PicCaterham1:28.199+0:03.418+0:00.09217
2122J. BianchiMarussia1:30.004+0:05.223+0:01.80524
 107 % барьер1:30.715 
2223R. GonzalezMarussia1:32.646+0:07.865+0:02.64219

от пред  = от предыдущего

Написати коментар
Показати коментарі
Про цю статтю
Серія Формула 1
Тип статті Важливі новини